Starlink 11361

operational
NORAD ID: 61585 Int'l Des: 2024-187 Owner: SPXS Country: US Constellation: starlink
LEOCIRCULAR

Über Starlink 11361

Beschreibung wird geladen...

Live-Position

3D-Globus wird geladen...

Nächste Überflüge

Höhenverlauf

Altitude vs Time

uPlot chart will show altitude changes over time

Zweizeiliger Elementsatz

1 61585U 24187M 25306.44771281 .00154462 00000-0 12526-2 0 9997
2 61585 53.1581 203.6443 0001487 84.5692 275.5495 15.69779347 60760
Epoch: 2. Nov. 2025 • Age: 37 hours

Aktueller Status

Höhe 361.6 km
Geschwindigkeit 7.70 km/s
Subsatellitenpunkt 42.93°N, 158.4°W
Startdatum 18. Okt. 2024
Alter 1 years
Typ internet

Technische Details

Klassifizierung Payload
Masse 960.00 kg
Trockenmasse 910.00 kg
Gesamtmasse 960.00 kg
Länge 0.30 m
Durchmesser 4.10 m
Spannweite 29.00 m
Form Box + pan
Hersteller SPXS
Bus-Typ Starlink V2MD
Phasenstatus In Orbit
Besitzer/Staat SPXS/US

Große Konstellationen

Loading constellations...